Regional Weather Roundup
Issued by NWS

Home | Current Version | Previous Version | Graphics & Text | Print | Product List | Glossary On
Versions: 1 2 3 4 5 6 7 8 9 10 11 12 13 14 15 16 17 18 19 20 21 22 23 24 25 26 27 28 29 30 31 32 33 34 35 36 37 38 39 40 41 42 43 44 45 46 47 48 49 50
000
ASUS43 KTOP 201808
RWRKS

WEATHER ROUNDUP FOR KANSAS
NATIONAL WEATHER SERVICE GOODLAND KS
1200 PM CST TUE FEB 20 2018

NOTE:  "FAIR" INDICATES FEW OR NO CLOUDS BELOW 12,000 FEET WITH NO
SIGNIFICANT WEATHER AND/OR OBSTRUCTIONS TO VISIBILITY.

KSZ001>006-013>018-027>032-041>047-201900-
NORTHWEST KANSAS

CITY           SKY/WX    TMP DP  RH WIND       PRES   REMARKS
GOODLAND       FAIR      11   1  64 NW18      30.08R WCI  -7
6HR MIN TEMP:   1; 6HR MAX TEMP:  11;

HAYS           FAIR      20  10  65 N20G29    30.14R WCI   4
HILL CITY      FAIR      20   2  45 N23G32    30.13S WCI   3
6HR MIN TEMP:  10; 6HR MAX TEMP:  20;

RUSSELL        PTSUNNY   22  14  71 N20       30.14R WCI   7
6HR MIN TEMP:  16; 6HR MAX TEMP:  22; 6HR PCP: TRACE;

$$

KSZ061>065-074>080-084>089-201900-
SOUTHWEST KANSAS

CITY           SKY/WX    TMP DP  RH WIND       PRES   REMARKS
DODGE CITY     FAIR      22   8  55 N24G33    30.08R WCI   5
6HR MIN TEMP:  13; 6HR MAX TEMP:  22; 6HR PCP: TRACE;

ELKHART        FAIR      26   7  44 N12       30.05R WCI  16
GARDEN CITY    FAIR      21   0  39 N24G33    30.07S WCI   4
6HR MIN TEMP:   9; 6HR MAX TEMP:  21; 6HR PCP: TRACE;

GREAT BEND     CLOUDY    21  14  74 N18       30.15R WCI   6
LIBERAL        FAIR      27   7  42 N15G24    30.08R WCI  15
PRATT          CLOUDY    22  16  78 N15       30.14R WCI   8
6HR MIN TEMP:  16; 6HR MAX TEMP:  22;

$$

KSZ066>073-081>083-090>101-201900-
SOUTHEAST KANSAS

CITY           SKY/WX    TMP DP  RH WIND       PRES   REMARKS
CHANUTE        FRZ RAIN  30  28  92 N22G28    30.04F FOG     WCI  17
6HR MIN TEMP:  30; 6HR MAX TEMP:  33; 6HR PCP:  0.65;

COFFEYVILLE    LGT RAIN  33  31  92 NW16      30.05R WCI  23
6HR MIN TEMP:  33; 6HR MAX TEMP:  40; 6HR PCP:  0.40;

HUTCHINSON     PTSUNNY   23  19  85 NW21G28   30.13R WCI   8
6HR MIN TEMP:  18; 6HR MAX TEMP:  23; 6HR PCP: TRACE;

MEDICINE LODGE   N/A     24  19  81 N22G29    30.12F WCI   9
NEWTON         CLOUDY    21  18  88 N20       30.12R WCI   6
PARSONS        FRZ RAIN  31  30  96 N16G29    30.05R FOG     WCI  20
6HR MIN TEMP:  31; 6HR MAX TEMP:  34; 6HR PCP:  1.39;

WICHITA INTL   CLOUDY    24  20  84 N20       30.11S WCI  10
6HR MIN TEMP:  21; 6HR MAX TEMP:  25; 6HR PCP:  0.05;

WICHITA JABRA  CLOUDY    22  20  92 N17G25    30.11R WCI   8
6HR MIN TEMP:  21; 6HR MAX TEMP:  25;

WICHITA MCCONL CLOUDY    22  19  86 N9        30.10F
WINFIELD       CLOUDY    24  23  96 N20       30.09S WCI  10
6HR MIN TEMP:  24; 6HR MAX TEMP:  31; 6HR PCP:  0.67;

$$

KSZ007>012-019>026-033>040-048>060-102>105-201900-
NORTHEAST KANSAS

CITY           SKY/WX    TMP DP  RH WIND       PRES   REMARKS
CONCORDIA      CLOUDY    20  14  77 N14G23    30.15R WCI   7
6HR MIN TEMP:  15; 6HR MAX TEMP:  20; 6HR PCP: TRACE;

EMPORIA        CLOUDY    24  20  84 NW17G25   30.09R FOG     WCI  11
6HR MIN TEMP:  23; 6HR MAX TEMP:  28; 6HR PCP:  0.46;

LAWRENCE       CLOUDY    27  24  89 NW17      30.10R WCI  14
6HR MIN TEMP:  27; 6HR MAX TEMP:  31; 6HR PCP:  0.68;

MANHATTAN      PTSUNNY   24  16  71 N9G16     30.15R
6HR MIN TEMP:  22; 6HR MAX TEMP:  24;

MARYSVILLE     CLOUDY    21  16  79 NW16G26   30.14R WCI   7
OLATHE IND     FRZ RAIN  26  24  92 NW18G25   30.05S WCI  13
6HR MIN TEMP:  27; 6HR MAX TEMP:  30; 6HR PCP:  0.34;

OLATHE EXE     FRZ RAIN  27  26  96 NW14      30.04R FOG     WCI  16
6HR MIN TEMP:  27; 6HR MAX TEMP:  30; 6HR PCP:  0.33;

SALINA         PTSUNNY   23  16  74 N14       30.18R WCI  11
6HR MIN TEMP:  20; 6HR MAX TEMP:  23; 6HR PCP: TRACE;

TOPEKA BILLARD CLOUDY    25  21  85 NW13      30.12R WCI  14
6HR MIN TEMP:  25; 6HR MAX TEMP:  29; 6HR PCP:  0.30;

TOPEKA FORBES  CLOUDY    26  22  84 NW18      30.10R WCI  13
6HR MIN TEMP:  26; 6HR MAX TEMP:  30; 6HR PCP:  0.31;

$$



USA.gov is the U.S. government's official web portal to all federal, state and local government web resources and services.